TimePDT,TemperatureF,Dew PointF,Humidity,Sea Level PressureIn,VisibilityMPH,Wind Direction,Wind SpeedMPH,Gust SpeedMPH,PrecipitationIn,Events,Conditions,WindDirDegrees,DateUTC
12:52 AM,66.0,30.0,26,29.96,10.0,NW,5.8,-,N/A,,Clear,310,2013-09-28 07:52:00
1:52 AM,64.9,28.0,25,29.96,10.0,North,6.9,-,N/A,,Clear,360,2013-09-28 08:52:00
2:52 AM,64.0,28.0,26,29.96,10.0,NNW,6.9,-,N/A,,Clear,330,2013-09-28 09:52:00
3:52 AM,62.1,30.0,30,29.95,10.0,Calm,Calm,-,N/A,,Clear,0,2013-09-28 10:52:00
4:52 AM,61.0,28.0,29,29.96,10.0,North,4.6,-,N/A,,Clear,360,2013-09-28 11:52:00
5:52 AM,59.0,28.9,32,29.98,10.0,NNE,3.5,-,N/A,,Clear,20,2013-09-28 12:52:00
6:52 AM,55.9,30.9,39,29.99,10.0,North,3.5,-,N/A,,Clear,350,2013-09-28 13:52:00
7:52 AM,63.0,34.0,34,30.00,10.0,Calm,Calm,-,N/A,,Clear,0,2013-09-28 14:52:00
8:52 AM,73.9,33.1,22,30.01,10.0,NW,4.6,-,N/A,,Clear,310,2013-09-28 15:52:00
9:52 AM,82.0,30.9,16,30.02,10.0,NNW,5.8,-,N/A,,Clear,340,2013-09-28 16:52:00
10:52 AM,86.0,25.0,11,30.04,10.0,NW,8.1,-,N/A,,Clear,320,2013-09-28 17:52:00
11:52 AM,88.0,23.0,9,30.03,10.0,West,6.9,-,N/A,,Clear,260,2013-09-28 18:52:00
12:52 PM,91.0,21.9,8,29.98,10.0,Variable,6.9,-,N/A,,Clear,0,2013-09-28 19:52:00
1:52 PM,91.0,17.1,7,29.98,10.0,SSE,5.8,-,N/A,,Clear,150,2013-09-28 20:52:00
2:52 PM,93.0,15.1,6,29.94,10.0,Variable,4.6,-,N/A,,Clear,0,2013-09-28 21:52:00
3:52 PM,91.9,18.0,7,29.93,10.0,SSE,5.8,-,N/A,,Clear,150,2013-09-28 22:52:00
4:52 PM,91.0,19.9,7,29.91,10.0,SE,6.9,-,N/A,,Clear,140,2013-09-28 23:52:00
5:52 PM,87.1,26.1,11,29.91,10.0,SE,5.8,-,N/A,,Clear,130,2013-09-29 00:52:00
6:52 PM,75.9,37.9,25,29.91,10.0,East,5.8,-,N/A,,Clear,100,2013-09-29 01:52:00
7:52 PM,73.0,34.0,24,29.93,10.0,Calm,Calm,-,N/A,,Clear,0,2013-09-29 02:52:00
8:52 PM,68.0,39.9,36,29.95,10.0,Calm,Calm,-,N/A,,Clear,0,2013-09-29 03:52:00
9:52 PM,66.0,39.0,37,29.96,10.0,Calm,Calm,-,N/A,,Clear,0,2013-09-29 04:52:00
10:52 PM,66.0,39.9,38,29.98,10.0,NNW,3.5,-,N/A,,Clear,330,2013-09-29 05:52:00
11:52 PM,64.9,39.9,40,29.98,10.0,North,4.6,-,N/A,,Clear,360,2013-09-29 06:52:00